| time (UTC) | temp F | wind direction | speed knots | gust knots | rain 1hr in | rain 24hr in | rain mn in | humidity % | barometer mb |
| 20260510115702 | 54 | 240 | 8.7 | 11.3 | 0.00 | 0.03 | 0.03 | 70 | 1008.0 |
| 20260510114202 | 53 | 232 | 7.8 | 9.6 | 0.00 | 0.03 | 0.03 | 74 | 1008.1 |
| 20260510112702 | 53 | 232 | 7.8 | 8.7 | 0.00 | 0.03 | 0.03 | 85 | 1007.7 |
| 20260510111228 | 52 | 230 | 7.0 | 8.7 | 0.00 | 0.03 | 0.03 | 86 | 1007.6 |
| 20260510105702 | 51 | 237 | 7.0 | 8.7 | 0.00 | 0.03 | 0.03 | 89 | 1007.1 |
| 20260510104228 | 52 | 175 | 4.3 | 6.1 | 0.00 | 0.03 | 0.03 | 89 | 1006.8 |
| 20260510103725 | 52 | 175 | 4.3 | 6.1 | 0.00 | 0.03 | 0.03 | 89 | 1006.8 |
| 20260510102702 | 52 | 233 | 7.8 | 8.7 | 0.00 | 0.03 | 0.03 | 87 | 1006.6 |
| 20260510101229 | 52 | 233 | 8.7 | 9.6 | 0.00 | 0.03 | 0.03 | 87 | 1006.7 |
| 20260510095711 | 50 | 235 | 5.2 | 5.2 | 0.00 | 0.03 | 0.03 | 91 | 1006.4 |
| 20260510095216 | 50 | 235 | 5.2 | 5.2 | 0.00 | 0.03 | 0.03 | 91 | 1006.4 |
| 20260510094202 | 50 | 179 | 5.2 | 7.0 | 0.00 | 0.03 | 0.03 | 91 | 1006.4 |
| 20260510092702 | 50 | 194 | 7.0 | 8.7 | 0.00 | 0.03 | 0.03 | 91 | 1006.0 |
| 20260510091202 | 50 | 196 | 6.1 | 6.1 | 0.00 | 0.03 | 0.03 | 91 | 1005.9 |
| 20260510085702 | 50 | 181 | 5.2 | 6.1 | 0.00 | 0.03 | 0.03 | 91 | 1005.8 |
| 20260510085212 | 50 | 181 | 5.2 | 6.1 | 0.00 | 0.03 | 0.03 | 91 | 1005.8 |
| 20260510084202 | 50 | 205 | 6.1 | 8.7 | 0.00 | 0.03 | 0.03 | 92 | 1005.7 |
| 20260510082729 | 50 | 167 | 7.8 | 8.7 | 0.00 | 0.03 | 0.03 | 91 | 1005.6 |
| 20260510082212 | 50 | 167 | 7.8 | 8.7 | 0.00 | 0.03 | 0.03 | 91 | 1005.6 |
| 20260510075702 | 51 | 173 | 8.7 | 8.7 | 0.00 | 0.03 | 0.03 | 92 | 1005.5 |
| 20260510074202 | 51 | 183 | 7.0 | 8.7 | 0.00 | 0.03 | 0.03 | 91 | 1005.6 |
| 20260510072243 | 51 | 180 | 6.1 | 8.7 | 0.00 | 0.03 | 0.03 | 92 | 1005.5 |
| 20260510071235 | 51 | 174 | 7.8 | 9.6 | 0.00 | 0.03 | 0.03 | 92 | 1005.3 |
| 20260510065702 | 51 | 193 | 8.7 | 10.4 | 0.01 | 0.03 | 0.03 | 92 | 1005.1 |
| 20260510062728 | 51 | 157 | 10.4 | 12.2 | 0.03 | 0.03 | 0.03 | 92 | 1005.0 |
| 20260510061202 | 51 | 172 | 8.7 | 9.6 | 0.03 | 0.03 | 0.03 | 92 | 1005.2 |
| 20260510055705 | 51 | 189 | 8.7 | 13.0 | 0.01 | 0.01 | 0.01 | 92 | 1005.4 |
| 20260510054209 | 52 | 187 | 10.4 | 13.0 | 0.01 | 0.01 | 0.01 | 91 | 1005.7 |
| 20260510052708 | 52 | 185 | 10.4 | 12.2 | 0.00 | 0.00 | 0.00 | 90 | 1005.4 |
| 20260510051202 | 52 | 176 | 10.4 | 13.9 | 0.00 | 0.00 | 0.00 | 87 | 1005.7 |
| 20260510045711 | 52 | 188 | 12.2 | 15.6 | 0.00 | 0.00 | 0.00 | 87 | 1005.1 |
| 20260510044228 | 51 | 202 | 12.2 | 17.4 | 0.00 | 0.00 | 0.00 | 87 | 1005.1 |
| 20260510041211 | 51 | 175 | 12.2 | 14.8 | 0.00 | 0.00 | 0.00 | 87 | 1004.9 |
| 20260510035702 | 51 | 163 | 13.9 | 22.6 | 0.00 | 0.00 | 0.00 | 87 | 1005.2 |
| 20260510033740 | 51 | 158 | 13.0 | 15.6 | 0.00 | 0.00 | 0.00 | 87 | 1005.6 |
| 20260510032702 | 51 | 157 | 12.2 | 13.9 | 0.00 | 0.00 | 0.00 | 87 | 1005.6 |
| 20260510031202 | 51 | 164 | 12.2 | 18.2 | 0.00 | 0.00 | 0.00 | 87 | 1005.2 |
| 20260510025702 | 52 | 170 | 13.9 | 15.6 | 0.00 | 0.00 | 0.00 | 87 | 1005.5 |
| 20260510025219 | 52 | 170 | 13.9 | 15.6 | 0.00 | 0.00 | 0.00 | 87 | 1005.5 |
| 20260510022706 | 51 | 176 | 13.9 | 15.6 | 0.00 | 0.00 | 0.00 | 87 | 1005.9 |
| 20260510021209 | 51 | 178 | 12.2 | 14.8 | 0.00 | 0.00 | 0.00 | 87 | 1006.2 |
| 20260510015711 | 51 | 165 | 11.3 | 17.4 | 0.00 | 0.00 | 0.00 | 87 | 1006.4 |
| 20260510012710 | 52 | 160 | 13.9 | 17.4 | 0.00 | 0.00 | 0.00 | 85 | 1006.3 |
| 20260510011204 | 52 | 174 | 12.2 | 17.4 | 0.00 | 0.00 | 0.00 | 84 | 1006.2 |
| 20260510005705 | 52 | 158 | 13.0 | 18.2 | 0.00 | 0.00 | 0.00 | 82 | 1005.8 |
| 20260510004205 | 52 | 177 | 13.9 | 19.1 | 0.00 | 0.00 | 0.00 | 81 | 1006.4 |
| 20260510002710 | 53 | 172 | 15.6 | 18.2 | 0.00 | 0.00 | 0.00 | 80 | 1006.1 |
| 20260510001203 | 53 | 158 | 12.2 | 19.1 | 0.00 | 0.00 | 0.00 | 77 | 1006.3 |
| 20260510000713 | 53 | 158 | 12.2 | 19.1 | 0.00 | 0.00 | 0.00 | 77 | 1006.0 |
| 20260509235712 | 54 | 164 | 13.0 | 18.2 | 0.00 | 0.00 | 0.00 | 76 | 1006.0 |
| 20260509232703 | 54 | 175 | 15.6 | 19.1 | 0.00 | 0.00 | 0.00 | 74 | 1006.1 |
| 20260509231203 | 55 | 164 | 13.9 | 17.4 | 0.00 | 0.00 | 0.00 | 72 | 1006.3 |
| 20260509225703 | 56 | 167 | 14.8 | 20.0 | 0.00 | 0.00 | 0.00 | 69 | 1006.4 |
| 20260509224203 | 56 | 170 | 16.5 | 22.6 | 0.00 | 0.00 | 0.00 | 69 | 1006.5 |
| 20260509222728 | 56 | 170 | 16.5 | 24.3 | 0.00 | 0.00 | 0.00 | 67 | 1006.4 |
| 20260509221202 | 57 | 172 | 19.1 | 23.5 | 0.00 | 0.00 | 0.00 | 66 | 1006.1 |
| 20260509215702 | 58 | 173 | 15.6 | 24.3 | 0.00 | 0.00 | 0.00 | 65 | 1006.3 |
| 20260509214202 | 58 | 165 | 16.5 | 19.1 | 0.00 | 0.00 | 0.00 | 61 | 1006.5 |
| 20260509212702 | 58 | 157 | 16.5 | 19.1 | 0.00 | 0.00 | 0.00 | 59 | 1006.6 |
| 20260509211202 | 59 | 167 | 17.4 | 22.6 | 0.00 | 0.00 | 0.00 | 57 | 1006.5 |
| 20260509205703 | 60 | 161 | 16.5 | 19.1 | 0.00 | 0.00 | 0.00 | 55 | 1006.5 |
| 20260509204202 | 60 | 178 | 14.8 | 18.2 | 0.00 | 0.00 | 0.00 | 52 | 1006.7 |
| 20260509201202 | 62 | 188 | 13.0 | 18.2 | 0.00 | 0.00 | 0.00 | 44 | 1007.0 |
| 20260509195702 | 62 | 171 | 13.0 | 18.2 | 0.00 | 0.00 | 0.00 | 41 | 1007.0 |
| 20260509194229 | 63 | 157 | 14.8 | 17.4 | 0.00 | 0.00 | 0.00 | 38 | 1007.3 |
| 20260509192702 | 63 | 179 | 12.2 | 13.9 | 0.00 | 0.00 | 0.00 | 36 | 1007.2 |
| 20260509191202 | 63 | 193 | 12.2 | 16.5 | 0.00 | 0.00 | 0.00 | 37 | 1007.3 |
| 20260509185728 | 63 | 178 | 13.0 | 16.5 | 0.00 | 0.00 | 0.00 | 32 | 1007.3 |
| 20260509182728 | 62 | 176 | 16.5 | 19.1 | 0.00 | 0.00 | 0.00 | 34 | 1007.7 |
| 20260509181202 | 62 | 165 | 15.6 | 19.1 | 0.00 | 0.00 | 0.00 | 30 | 1007.9 |
| 20260509175702 | 63 | 173 | 12.2 | 13.9 | 0.00 | 0.00 | 0.00 | 28 | 1008.3 |
| 20260509174202 | 62 | 172 | 11.3 | 17.4 | 0.00 | 0.00 | 0.00 | 28 | 1008.6 |
| 20260509172702 | 62 | 182 | 12.2 | 17.4 | 0.00 | 0.00 | 0.00 | 26 | 1008.6 |
| 20260509171202 | 62 | 168 | 12.2 | 14.8 | 0.00 | 0.00 | 0.00 | 27 | 1009.0 |
| 20260509165703 | 62 | 167 | 13.0 | 16.5 | 0.00 | 0.00 | 0.00 | 27 | 1009.1 |
| 20260509164202 | 61 | 158 | 13.0 | 13.0 | 0.00 | 0.00 | 0.00 | 29 | 1009.2 |
| 20260509162702 | 61 | 169 | 12.2 | 14.8 | 0.00 | 0.00 | 0.00 | 31 | 1009.3 |
| 20260509161202 | 61 | 161 | 12.2 | 14.8 | 0.00 | 0.00 | 0.00 | 32 | 1009.6 |
| 20260509155702 | 60 | 151 | 12.2 | 15.6 | 0.00 | 0.00 | 0.00 | 33 | 1010.1 |
| 20260509154202 | 59 | 171 | 12.2 | 17.4 | 0.00 | 0.00 | 0.00 | 31 | 1009.9 |
| 20260509152702 | 58 | 185 | 10.4 | 14.8 | 0.00 | 0.00 | 0.00 | 33 | 1010.2 |
| 20260509151202 | 58 | 164 | 11.3 | 13.9 | 0.00 | 0.00 | 0.00 | 37 | 1010.3 |
| 20260509145702 | 56 | 167 | 10.4 | 15.6 | 0.00 | 0.00 | 0.00 | 40 | 1010.8 |
| 20260509144229 | 56 | 161 | 15.6 | 17.4 | 0.00 | 0.00 | 0.00 | 40 | 1010.6 |
| 20260509142728 | 56 | 178 | 13.0 | 13.0 | 0.00 | 0.00 | 0.00 | 40 | 1010.7 |
| 20260509141202 | 55 | 170 | 10.4 | 13.0 | 0.00 | 0.00 | 0.00 | 43 | 1010.6 |
| 20260509135702 | 54 | 167 | 12.2 | 17.4 | 0.00 | 0.00 | 0.00 | 44 | 1010.6 |
| 20260509134202 | 54 | 171 | 11.3 | 15.6 | 0.00 | 0.00 | 0.00 | 45 | 1010.9 |
| 20260509132728 | 53 | 166 | 9.6 | 13.9 | 0.00 | 0.00 | 0.00 | 48 | 1011.0 |
| 20260509131202 | 52 | 147 | 10.4 | 13.0 | 0.00 | 0.00 | 0.00 | 48 | 1011.0 |
| 20260509125702 | 52 | 164 | 11.3 | 13.0 | 0.00 | 0.00 | 0.00 | 48 | 1011.1 |
| 20260509124202 | 50 | 172 | 7.8 | 10.4 | 0.00 | 0.00 | 0.00 | 51 | 1011.1 |